SCP
0 -0 0 0 0 0 -0 -0 -0 -0 -0 -0 -0 -0 -0 -0 -0 -0 -0 -0 0 0 0 0 0 0 0 0 0 0 0 0 -0 -0 -0 -0 -0 0 -0 -0 -0 0 0
0 0 0 0 0 0 0 0 -0 -0 -0 -0 -0 -0 -0 -0 -0 0 0 0 0 0 0 0 0 0 0 0 0 0 0 0 0 -0 -0 -0 -0 -0 -0 -0 -0 -0 -0
0 0 0 0 0 0 0 0 0 0 0 0 -0 -0 0 0 0 0 0 0 0 0 0 0 0 0 0 0 0 0 0 0 0 0 -0 -0 -0 -0 -0 -0 -0 -0 -0
0 -0 -0 -0 0 0 0 0 0 0 0 0 0 0 0 0 0 0 0 0 0 0 0 0 0 0 0 0 0 0 0 0 0 0 -0 -0 -0 0 -0 -0 -0 -0 -0
-0 -0 -0 0 0 0 -0 -0 -0 -0 -0 0 0 0 0 0 0 0 0 0 0 0 0 0 0 0 0 0 0 0 0 0 0 0 -0 -0 -0 0 0 0 0 -0 -0
-0 -0 -0 -0 -0 0 0 -0 -0 -0 -0 0 0 0 0 0 0 0 0 0 0 0 0 0 0 0 0 0 0 0 0 0 0 0 0 0 0 0 0 0 0 0 0
-0 0 0 0 0 0 0 0 0 0 0 0 0 0 0 0 0 0 0 0 0 0 0 0 0 0 0 0 0 0 0 0 0 0 0 0 0 0 0 0 0 0 0
-0 -0 -0 0 0 0 0 0 0 0 0 0 -0 -0 -0 -0 -0 0 0 0 0 0 0 0 0 0 1 0 0 0 0 0 0 0 0 0 0 0 0 -0 0 0 0
-0 0 0 -0 -0 0 -0 -0 -0 -0 -0 -0 -0 -0 -0 -0 -0 -0 -0 -0 -0 -0 0 0 0 0 1 1 0 0 0 0 0 0 0 0 0 0 0 0 0 0 1
-0 0 0 -0 -0 -0 -0 -0 -0 -0 -0 0 0 0 0 0 0 0 0 0 0 0 0 0 1 1 1 1 1 1 1 0 0 0 0 0 0 0 0 1 0 0 1
0 0 0 0 0 0 0 0 0 0 0 0 0 0 0 0 0 0 0 0 0 0 1 1 1 1 1 1 1 1 1 0 0 0 1 0 0 0 1 2 1 1 1
0 0 0 0 0 0 0 0 0 0 0 0 0 0 0 0 0 0 0 0 0 0 0 0 0 0 0 0 0 1 1 0 1 1 0 0 1 1 1 1 1 1 0
-0 -0 -0 0 0 0 0 0 0 0 0 0 0 0 0 0 0 0 0 0 0 0 0 0 0 0 0 1 1 0 0 0 0 1 0 0 0 1 2 1 1 0 0
-0 -0 -0 0 0 0 0 0 0 0 0 0 0 0 0 0 0 0 0 0 0 0 0 0 0 0 0 0 0 0 0 0 0 0 0 0 0 0 0 0 1 1 2
-0 -0 -0 0 0 0 0 0 0 0 0 0 0 0 0 0 0 0 0 0 0 0 0 0 0 0 0 0 0 0 0 0 0 0 0 0 0 0 0 0 0 0 0
0 0 0 0 0 0 0 0 0 0 0 0 0 0 0 0 0 0 0 0 0 0 0 0 0 0 0 0 0 0 0 0 0 0 0 0 0 0 0 0 0 0 0
0 0 0 0 0 0 0 0 0 0 0 0 0 0 0 0 0 0 0 0 0 0 0 0 0 0 0 0 0 0 0 0 0 0 0 0 0 -0 -0 -0 -0 0 0
0 0 0 0 0 0 0 0 0 0 0 0 0 0 0 0 0 0 0 0 0 0 0 0 0 0 0 0 0 0 0 0 0 0 0 0 0 0 0 0 0 0 0
0 0 0 0 0 0 0 0 0 0 0 0 0 0 0 0 0 0 0 0 0 0 0 0 0 0 0 0 0 0 0 0 0 0 0 0 0 0 0 0 0 0 0
0 0 0 0 0 0 0 0 0 0 0 0 0 0 0 0 0 0 0 0 0 0 0 0 0 0 0 0 0 0 0 0 0 0 0 0 0 0 0 0 0 1 1
0 0 0 0 0 0 0 0 0 0 0 0 0 0 0 0 0 0 0 0 0 0 0 0 0 0 0 0 0 0 0 0 0 0 0 0 0 0 0 0 0 0 0
0 0 0 0 0 0 0 0 0 0 0 0 0 0 0 0 0 0 0 0 0 0 0 0 0 0 0 0 0 0 0 0 0 0 0 0 0 0 0 0 0 0 0
0 0 0 0 0 0 0 0 0 0 0 0 0 0 0 0 0 0 0 0 0 0 0 0 0 0 0 0 0 0 0 0 0 0 0 0 0 0 0 0 0 0 0
0 0 0 0 0 0 -0 0 0 0 0 0 0 0 0 0 0 0 0 0 0 0 0 0 0 0 0 0 0 0 0 0 0 0 0 0 0 0 0 0 0 0 0
0 0 0 0 0 -0 -0 -0 -0 0 0 0 0 0 0 0 0 0 0 0 0 0 0 0 0 0 0 0 0 0 0 0 0 0 0 0 0 0 0 0 0 0 0
0 0 0 0 -0 -0 -0 -0 -0 0 0 0 0 0 0 0 0 0 0 0 0 0 0 0 0 0 0 0 0 0 0 0 0 0 0 0 0 0 0 0 0 0 0
Wind_Speed_500mb
9 8 9 13 12 13 14 16 15 15 18 20 21 19 16 15 14 14 13 11 7 5 4 5 6 6 8 9 8 10 11 13 14 15 17 19 19 18 16 13 11 9 10
9 9 8 12 13 12 13 14 15 16 17 19 20 19 18 16 15 13 11 7 3 1 3 3 3 3 5 6 6 2 2 3 4 8 10 12 14 15 15 14 11 7 7
13 8 7 12 14 13 13 12 11 12 14 15 15 15 15 14 13 10 6 4 2 1 1 1 1 0 2 6 9 10 9 6 5 4 4 3 4 7 9 9 8 7 6
13 10 8 11 14 13 10 10 10 11 12 14 14 13 12 11 9 7 5 3 1 1 2 2 2 2 3 7 11 14 15 15 14 11 7 9 8 5 1 1 0 1 2
11 12 9 9 11 8 5 3 2 2 4 6 8 7 7 7 7 7 7 6 5 4 4 5 6 8 10 11 13 16 18 19 20 20 20 20 20 19 17 9 7 8 9
14 15 14 11 8 5 2 1 3 3 3 3 3 4 4 5 7 10 11 11 10 10 11 12 13 14 16 17 18 19 22 23 24 26 30 30 28 26 24 22 18 14 15
17 19 18 16 11 8 7 7 7 7 8 6 5 3 4 5 7 10 12 12 14 15 16 17 17 17 17 18 19 22 23 26 27 29 33 35 36 31 29 26 24 21 18
15 16 18 17 13 11 12 12 12 11 9 9 10 10 10 11 11 11 11 12 14 17 20 23 24 22 22 22 22 23 25 27 27 29 33 35 37 38 37 34 28 28 23
12 11 11 14 14 11 10 11 12 13 14 14 14 13 11 9 7 8 10 10 11 15 21 24 25 27 27 27 27 27 28 30 31 29 32 35 34 39 44 43 35 34 30
13 12 13 14 12 11 12 11 11 12 13 13 12 9 4 6 7 12 14 18 21 24 24 25 26 27 30 30 30 28 28 30 30 30 30 31 31 37 42 44 39 38 36
7 8 13 13 11 10 10 10 11 10 7 5 1 5 16 22 24 25 27 28 34 34 34 36 34 33 31 29 30 29 29 25 29 28 30 31 33 34 37 42 39 37 38
12 10 13 11 9 8 7 4 2 6 4 6 11 18 25 25 24 25 28 31 29 29 30 32 31 33 32 30 32 35 34 26 22 25 27 31 29 30 33 35 35 40 40
14 16 13 9 5 5 5 5 6 8 12 17 23 28 31 31 33 30 28 22 21 21 22 26 26 27 31 31 38 38 38 23 17 20 28 26 21 31 30 32 33 35 35
12 12 9 3 3 7 8 9 13 17 21 24 27 28 26 23 15 15 18 19 16 17 19 19 19 19 25 29 33 43 41 44 22 15 21 23 29 28 28 29 12 20 17
7 8 4 0 5 9 12 16 19 19 19 19 17 19 16 13 15 18 22 22 23 23 20 19 16 22 21 24 31 30 31 31 30 11 7 11 22 17 26 22 27 18 14
7 8 8 7 8 13 16 18 18 15 12 13 15 14 13 12 17 20 21 25 29 30 31 28 28 31 28 24 22 24 25 28 43 50 40 13 16 25 33 35 33 34 37
10 13 15 13 13 17 12 11 12 10 11 13 14 16 16 17 21 25 29 33 36 34 31 29 32 36 37 36 35 31 31 35 35 33 32 39 39 31 27 29 33 43 60
12 8 9 8 12 14 19 21 22 25 22 23 25 27 26 26 28 30 34 36 39 41 42 38 38 38 41 46 44 45 52 54 56 57 54 52 49 47 52 49 56 61 66
18 14 9 6 12 15 19 20 21 27 29 33 34 32 34 36 38 39 41 43 45 46 49 49 46 45 46 48 49 51 51 54 54 54 56 57 56 57 54 48 47 42 41
27 25 23 17 13 15 19 23 26 29 31 34 36 37 38 40 42 42 44 46 47 49 51 53 54 52 52 51 56 54 50 53 54 53 55 50 45 44 42 40 34 33 34
27 27 26 24 24 20 19 19 22 27 30 34 36 37 39 41 42 43 44 46 46 47 49 51 52 51 47 42 46 37 40 40 32 33 31 26 23 21 20 22 24 22 22
23 26 27 29 31 36 39 41 41 39 37 35 35 36 36 36 38 41 42 43 44 45 44 42 41 40 36 33 26 31 24 23 19 14 11 14 18 21 21 20 22 25 26
19 20 24 32 38 43 48 50 49 44 39 34 33 33 34 35 35 36 37 37 37 37 37 36 34 33 31 25 26 12 15 11 31 14 25 26 19 22 28 31 29 25 24
9 17 25 32 38 44 51 55 55 45 37 36 36 35 34 33 31 30 29 29 30 30 29 31 33 33 34 29 25 16 14 26 16 27 27 34 29 25 29 28 25 26 31
5 13 21 29 37 47 57 58 46 36 32 32 33 32 30 27 26 26 25 23 25 25 26 28 30 31 34 34 32 28 20 16 12 16 28 27 26 22 25 24 22 23 24
6 14 26 33 43 54 60 53 42 34 32 31 32 31 28 25 20 21 22 20 21 23 24 25 24 25 26 26 25 24 21 22 20 21 26 29 27 16 17 17 13 13 22
Wind_Direction_500mb
148 137 149 146 140 119 109 101 102 116 132 143 148 149 147 145 144 141 139 138 126 97 60 71 91 119 141 137 113 96 104 92 85 82 80 82 77 75 77 82 94 115 150
171 142 141 144 144 126 110 103 104 110 121 131 138 141 142 142 141 139 137 136 129 58 24 72 88 115 166 190 196 180 122 113 93 93 95 88 92 93 86 81 83 109 124
141 133 126 144 143 127 116 106 100 106 122 132 131 128 130 134 135 133 130 126 100 42 344 321 331 315 219 226 231 239 252 267 228 229 210 130 97 93 96 93 93 96 113
135 122 121 144 148 147 139 126 119 114 121 130 135 138 138 137 140 144 145 145 156 321 338 356 354 319 272 251 247 246 248 254 259 257 266 243 244 229 189 131 0 180 142
111 96 100 124 141 149 158 179 170 132 124 134 146 151 162 178 195 210 224 233 240 250 251 262 280 289 287 275 262 257 254 252 251 253 256 252 255 258 255 262 260 253 241
96 86 86 98 104 114 130 121 102 110 98 95 124 160 198 223 241 248 254 261 265 265 267 271 278 284 286 283 276 266 262 258 253 252 250 252 257 258 260 260 255 255 243
108 111 122 125 125 131 126 108 90 78 77 77 65 26 346 328 318 311 303 289 273 262 259 261 265 271 271 269 271 272 270 268 265 260 257 252 251 255 257 260 255 256 253
131 135 131 122 124 115 112 120 127 121 98 79 66 49 26 14 7 4 340 321 307 294 283 277 274 270 269 271 271 271 271 270 269 265 264 260 254 252 253 250 256 250 250
130 119 103 92 97 109 112 85 69 67 61 61 59 57 47 23 2 354 341 308 287 287 289 285 281 276 271 271 272 275 278 279 276 272 263 264 260 251 248 249 252 248 250
138 131 104 94 102 105 105 98 90 89 96 99 96 101 73 352 314 292 295 287 283 282 275 268 274 279 275 273 273 270 270 278 283 279 272 266 267 255 246 247 244 242 247
121 118 120 107 106 108 110 113 102 89 90 111 160 308 312 300 300 301 307 302 298 300 296 290 285 284 279 282 276 272 273 282 284 276 269 269 266 256 244 238 238 241 242
141 152 158 155 116 115 136 156 340 317 303 290 311 312 309 301 304 305 301 300 300 293 286 290 293 290 281 273 268 269 270 271 278 280 278 277 271 251 249 237 230 233 241
111 162 175 176 165 190 223 271 282 283 292 299 304 304 300 300 300 302 306 316 325 326 319 290 283 290 286 280 270 272 273 269 277 287 295 281 286 252 234 228 233 243 254
79 80 87 114 230 233 241 255 269 279 289 293 297 298 296 294 305 330 338 336 341 353 345 330 300 308 299 285 280 284 271 263 264 338 307 295 292 290 260 238 237 249 260
68 59 71 80 253 262 271 276 282 284 283 288 293 297 303 315 320 320 326 327 320 331 330 325 333 339 315 283 292 288 290 278 244 278 292 6 319 273 271 260 250 243 232
347 332 338 314 299 296 297 296 290 285 287 293 292 292 298 320 327 323 323 316 318 320 313 311 309 301 297 299 293 298 292 299 267 269 273 309 328 306 302 283 268 264 286
10 354 333 325 333 326 322 318 303 296 312 310 313 309 304 305 314 318 318 317 315 315 315 308 298 296 290 284 281 276 279 280 280 285 286 295 293 286 278 276 277 281 275
42 20 14 355 333 324 331 331 327 321 321 323 322 322 321 319 319 317 315 313 312 312 312 311 307 300 292 289 285 279 277 271 266 270 268 268 267 262 265 262 257 254 248
64 54 33 16 344 336 335 330 326 326 322 317 316 315 315 316 317 316 315 313 311 309 308 307 305 301 296 290 285 281 275 274 274 272 272 272 271 269 267 274 273 268 271
75 67 61 46 31 356 338 329 324 318 316 314 314 316 315 314 312 313 312 309 307 307 306 303 301 298 296 295 289 286 283 278 279 278 278 280 283 283 278 274 276 273 268
77 69 60 52 40 25 9 352 337 329 319 313 312 313 312 312 313 312 313 314 315 315 316 316 314 313 309 303 304 294 290 291 292 285 281 277 280 285 287 282 278 277 272
69 57 47 35 25 15 8 2 353 341 331 324 322 321 321 321 320 322 323 324 325 327 330 332 333 334 331 330 321 311 307 287 278 312 299 318 315 323 315 304 294 287 279
64 56 41 29 18 8 2 356 350 340 333 330 330 331 330 331 330 329 332 335 339 344 350 356 3 7 2 358 351 327 323 312 319 285 317 323 323 324 317 314 304 286 276
67 40 25 18 9 1 356 350 346 343 342 341 344 346 348 344 345 346 349 354 1 10 17 21 21 21 17 6 13 355 308 293 305 306 304 307 306 307 298 299 297 290 289
28 15 7 4 1 358 353 351 351 350 350 349 350 353 355 358 357 360 3 10 17 29 30 30 25 21 22 26 17 5 3 346 325 314 317 325 319 303 300 302 297 296 296
302 346 354 355 359 356 351 351 356 357 355 354 354 358 2 4 4 9 16 24 30 33 33 32 21 17 15 22 30 25 24 356 340 326 313 323 326 325 328 318 319 312 302
Wind_Speed_850mb
9 8 9 13 12 13 14 16 15 15 18 20 21 19 16 15 14 14 13 11 7 5 4 5 6 6 8 9 8 10 11 13 14 15 17 19 19 18 16 13 11 9 10
9 9 8 12 13 12 13 14 15 16 17 19 20 19 18 16 15 13 11 7 3 1 3 3 3 3 5 6 6 2 2 3 4 8 10 12 14 15 15 14 11 7 7
13 8 7 12 14 13 13 12 11 12 14 15 15 15 15 14 13 10 6 4 2 1 1 1 1 0 2 6 9 10 9 6 5 4 4 3 4 7 9 9 8 7 6
13 10 8 11 14 13 10 10 10 11 12 14 14 13 12 11 9 7 5 3 1 1 2 2 2 2 3 7 11 14 15 15 14 11 7 9 8 5 1 1 0 1 2
11 12 9 9 11 8 5 3 2 2 4 6 8 7 7 7 7 7 7 6 5 4 4 5 6 8 10 11 13 16 18 19 20 20 20 20 20 19 17 9 7 8 9
14 15 14 11 8 5 2 1 3 3 3 3 3 4 4 5 7 10 11 11 10 10 11 12 13 14 16 17 18 19 22 23 24 26 30 30 28 26 24 22 18 14 15
17 19 18 16 11 8 7 7 7 7 8 6 5 3 4 5 7 10 12 12 14 15 16 17 17 17 17 18 19 22 23 26 27 29 33 35 36 31 29 26 24 21 18
15 16 18 17 13 11 12 12 12 11 9 9 10 10 10 11 11 11 11 12 14 17 20 23 24 22 22 22 22 23 25 27 27 29 33 35 37 38 37 34 28 28 23
12 11 11 14 14 11 10 11 12 13 14 14 14 13 11 9 7 8 10 10 11 15 21 24 25 27 27 27 27 27 28 30 31 29 32 35 34 39 44 43 35 34 30
13 12 13 14 12 11 12 11 11 12 13 13 12 9 4 6 7 12 14 18 21 24 24 25 26 27 30 30 30 28 28 30 30 30 30 31 31 37 42 44 39 38 36
7 8 13 13 11 10 10 10 11 10 7 5 1 5 16 22 24 25 27 28 34 34 34 36 34 33 31 29 30 29 29 25 29 28 30 31 33 34 37 42 39 37 38
12 10 13 11 9 8 7 4 2 6 4 6 11 18 25 25 24 25 28 31 29 29 30 32 31 33 32 30 32 35 34 26 22 25 27 31 29 30 33 35 35 40 40
14 16 13 9 5 5 5 5 6 8 12 17 23 28 31 31 33 30 28 22 21 21 22 26 26 27 31 31 38 38 38 23 17 20 28 26 21 31 30 32 33 35 35
12 12 9 3 3 7 8 9 13 17 21 24 27 28 26 23 15 15 18 19 16 17 19 19 19 19 25 29 33 43 41 44 22 15 21 23 29 28 28 29 12 20 17
7 8 4 0 5 9 12 16 19 19 19 19 17 19 16 13 15 18 22 22 23 23 20 19 16 22 21 24 31 30 31 31 30 11 7 11 22 17 26 22 27 18 14
7 8 8 7 8 13 16 18 18 15 12 13 15 14 13 12 17 20 21 25 29 30 31 28 28 31 28 24 22 24 25 28 43 50 40 13 16 25 33 35 33 34 37
10 13 15 13 13 17 12 11 12 10 11 13 14 16 16 17 21 25 29 33 36 34 31 29 32 36 37 36 35 31 31 35 35 33 32 39 39 31 27 29 33 43 60
12 8 9 8 12 14 19 21 22 25 22 23 25 27 26 26 28 30 34 36 39 41 42 38 38 38 41 46 44 45 52 54 56 57 54 52 49 47 52 49 56 61 66
18 14 9 6 12 15 19 20 21 27 29 33 34 32 34 36 38 39 41 43 45 46 49 49 46 45 46 48 49 51 51 54 54 54 56 57 56 57 54 48 47 42 41
27 25 23 17 13 15 19 23 26 29 31 34 36 37 38 40 42 42 44 46 47 49 51 53 54 52 52 51 56 54 50 53 54 53 55 50 45 44 42 40 34 33 34
27 27 26 24 24 20 19 19 22 27 30 34 36 37 39 41 42 43 44 46 46 47 49 51 52 51 47 42 46 37 40 40 32 33 31 26 23 21 20 22 24 22 22
23 26 27 29 31 36 39 41 41 39 37 35 35 36 36 36 38 41 42 43 44 45 44 42 41 40 36 33 26 31 24 23 19 14 11 14 18 21 21 20 22 25 26
19 20 24 32 38 43 48 50 49 44 39 34 33 33 34 35 35 36 37 37 37 37 37 36 34 33 31 25 26 12 15 11 31 14 25 26 19 22 28 31 29 25 24
9 17 25 32 38 44 51 55 55 45 37 36 36 35 34 33 31 30 29 29 30 30 29 31 33 33 34 29 25 16 14 26 16 27 27 34 29 25 29 28 25 26 31
5 13 21 29 37 47 57 58 46 36 32 32 33 32 30 27 26 26 25 23 25 25 26 28 30 31 34 34 32 28 20 16 12 16 28 27 26 22 25 24 22 23 24
6 14 26 33 43 54 60 53 42 34 32 31 32 31 28 25 20 21 22 20 21 23 24 25 24 25 26 26 25 24 21 22 20 21 26 29 27 16 17 17 13 13 22
Wind_Direction_850mb
148 137 149 146 140 119 109 101 102 116 132 143 148 149 147 145 144 141 139 138 126 97 60 71 91 119 141 137 113 96 104 92 85 82 80 82 77 75 77 82 94 115 150
171 142 141 144 144 126 110 103 104 110 121 131 138 141 142 142 141 139 137 136 129 58 24 72 88 115 166 190 196 180 122 113 93 93 95 88 92 93 86 81 83 109 124
141 133 126 144 143 127 116 106 100 106 122 132 131 128 130 134 135 133 130 126 100 42 344 321 331 315 219 226 231 239 252 267 228 229 210 130 97 93 96 93 93 96 113
135 122 121 144 148 147 139 126 119 114 121 130 135 138 138 137 140 144 145 145 156 321 338 356 354 319 272 251 247 246 248 254 259 257 266 243 244 229 189 131 0 180 142
111 96 100 124 141 149 158 179 170 132 124 134 146 151 162 178 195 210 224 233 240 250 251 262 280 289 287 275 262 257 254 252 251 253 256 252 255 258 255 262 260 253 241
96 86 86 98 104 114 130 121 102 110 98 95 124 160 198 223 241 248 254 261 265 265 267 271 278 284 286 283 276 266 262 258 253 252 250 252 257 258 260 260 255 255 243
108 111 122 125 125 131 126 108 90 78 77 77 65 26 346 328 318 311 303 289 273 262 259 261 265 271 271 269 271 272 270 268 265 260 257 252 251 255 257 260 255 256 253
131 135 131 122 124 115 112 120 127 121 98 79 66 49 26 14 7 4 340 321 307 294 283 277 274 270 269 271 271 271 271 270 269 265 264 260 254 252 253 250 256 250 250
130 119 103 92 97 109 112 85 69 67 61 61 59 57 47 23 2 354 341 308 287 287 289 285 281 276 271 271 272 275 278 279 276 272 263 264 260 251 248 249 252 248 250
138 131 104 94 102 105 105 98 90 89 96 99 96 101 73 352 314 292 295 287 283 282 275 268 274 279 275 273 273 270 270 278 283 279 272 266 267 255 246 247 244 242 247
121 118 120 107 106 108 110 113 102 89 90 111 160 308 312 300 300 301 307 302 298 300 296 290 285 284 279 282 276 272 273 282 284 276 269 269 266 256 244 238 238 241 242
141 152 158 155 116 115 136 156 340 317 303 290 311 312 309 301 304 305 301 300 300 293 286 290 293 290 281 273 268 269 270 271 278 280 278 277 271 251 249 237 230 233 241
111 162 175 176 165 190 223 271 282 283 292 299 304 304 300 300 300 302 306 316 325 326 319 290 283 290 286 280 270 272 273 269 277 287 295 281 286 252 234 228 233 243 254
79 80 87 114 230 233 241 255 269 279 289 293 297 298 296 294 305 330 338 336 341 353 345 330 300 308 299 285 280 284 271 263 264 338 307 295 292 290 260 238 237 249 260
68 59 71 80 253 262 271 276 282 284 283 288 293 297 303 315 320 320 326 327 320 331 330 325 333 339 315 283 292 288 290 278 244 278 292 6 319 273 271 260 250 243 232
347 332 338 314 299 296 297 296 290 285 287 293 292 292 298 320 327 323 323 316 318 320 313 311 309 301 297 299 293 298 292 299 267 269 273 309 328 306 302 283 268 264 286
10 354 333 325 333 326 322 318 303 296 312 310 313 309 304 305 314 318 318 317 315 315 315 308 298 296 290 284 281 276 279 280 280 285 286 295 293 286 278 276 277 281 275
42 20 14 355 333 324 331 331 327 321 321 323 322 322 321 319 319 317 315 313 312 312 312 311 307 300 292 289 285 279 277 271 266 270 268 268 267 262 265 262 257 254 248
64 54 33 16 344 336 335 330 326 326 322 317 316 315 315 316 317 316 315 313 311 309 308 307 305 301 296 290 285 281 275 274 274 272 272 272 271 269 267 274 273 268 271
75 67 61 46 31 356 338 329 324 318 316 314 314 316 315 314 312 313 312 309 307 307 306 303 301 298 296 295 289 286 283 278 279 278 278 280 283 283 278 274 276 273 268
77 69 60 52 40 25 9 352 337 329 319 313 312 313 312 312 313 312 313 314 315 315 316 316 314 313 309 303 304 294 290 291 292 285 281 277 280 285 287 282 278 277 272
69 57 47 35 25 15 8 2 353 341 331 324 322 321 321 321 320 322 323 324 325 327 330 332 333 334 331 330 321 311 307 287 278 312 299 318 315 323 315 304 294 287 279
64 56 41 29 18 8 2 356 350 340 333 330 330 331 330 331 330 329 332 335 339 344 350 356 3 7 2 358 351 327 323 312 319 285 317 323 323 324 317 314 304 286 276
67 40 25 18 9 1 356 350 346 343 342 341 344 346 348 344 345 346 349 354 1 10 17 21 21 21 17 6 13 355 308 293 305 306 304 307 306 307 298 299 297 290 289
28 15 7 4 1 358 353 351 351 350 350 349 350 353 355 358 357 360 3 10 17 29 30 30 25 21 22 26 17 5 3 346 325 314 317 325 319 303 300 302 297 296 296
302 346 354 355 359 356 351 351 356 357 355 354 354 358 2 4 4 9 16 24 30 33 33 32 21 17 15 22 30 25 24 356 340 326 313 323 326 325 328 318 319 312 302